Temperature
11 11 11 11 11 11 11 11 11 11 10 10 10 10 11 11 11 11 11 11 11 11 11 11 11 11 11 11 11 11 11 11 11 11 11 11 11 11 11 10 10 10 10
10 10 10 10 10 10 10 10 10 10 10 10 10 10 10 10 10 10 10 10 10 10 10 10 10 10 10 10 10 10 10 10 10 10 10 10 10 10 10 10 10 10 10
10 10 10 10 10 10 10 10 10 10 10 10 10 10 10 10 10 10 10 10 10 10 10 10 10 10 10 10 10 10 10 10 10 10 10 10 10 10 9 9 9 9 9
9 9 9 9 10 9 9 9 9 9 9 9 9 9 9 10 10 10 9 9 9 9 9 10 10 9 9 9 9 9 9 9 9 9 9 9 9 9 9 9 9 9 9
9 9 9 9 9 9 9 9 9 9 9 9 9 9 9 9 9 9 9 9 9 9 9 9 9 9 9 9 9 9 9 9 9 9 9 9 9 9 8 8 8 8 8
8 8 8 8 8 8 9 8 8 9 8 9 9 9 9 9 9 9 9 9 9 9 9 9 9 9 9 9 9 8 9 9 9 8 8 8 8 8 8 8 8 8 8
8 8 8 8 8 8 8 8 8 8 8 8 8 8 8 8 8 8 8 8 8 8 8 8 8 8 8 8 8 8 8 8 8 8 8 8 8 7 7 7 7 7 7
8 8 8 8 8 8 8 8 8 8 8 8 7 7 7 7 7 7 8 8 8 8 8 8 8 8 8 8 8 8 8 8 8 7 8 7 7 7 7 6 6 6 6
7 7 7 7 7 7 7 7 7 7 7 7 7 7 7 7 6 7 7 7 7 7 7 7 7 7 7 7 8 7 8 7 7 7 7 7 7 6 6 6 6 6 6
7 7 7 7 7 7 7 7 7 7 7 7 7 7 7 7 6 6 6 7 7 7 7 7 7 7 7 7 7 7 7 7 7 7 7 6 6 6 6 6 6 6 6
7 7 7 6 6 6 6 7 7 6 6 6 6 7 7 6 6 6 6 6 6 6 6 7 7 7 7 7 7 7 7 7 7 6 6 6 6 6 6 6 6 6 6
6 6 6 6 6 6 6 6 6 6 6 6 6 6 6 6 6 6 5 5 5 6 6 6 6 6 6 6 6 6 6 6 6 6 6 6 6 6 6 6 5 5 5
6 6 6 6 6 6 6 6 6 6 6 6 6 6 6 6 6 6 5 5 4 5 5 6 6 6 6 6 6 6 6 6 6 6 6 6 6 6 6 5 5 5 5
6 6 6 6 6 5 5 5 5 5 5 5 5 5 5 5 5 5 5 5 4 4 5 5 5 5 5 5 5 5 5 5 5 5 5 5 5 5 5 5 5 5 5
5 6 5 5 5 5 5 5 5 5 5 5 5 5 5 5 5 5 5 5 4 4 4 4 5 5 5 5 5 5 5 5 5 5 5 5 5 5 5 5 4 4 4
5 5 5 5 5 5 5 5 5 4 4 4 4 4 4 4 4 4 4 4 4 3 3 4 4 4 4 4 4 4 4 4 4 4 4 4 4 4 4 4 4 4 4
5 5 5 5 5 4 4 4 4 4 4 4 4 4 4 4 4 4 4 4 4 3 3 3 4 4 4 3 3 3 3 4 4 4 4 4 4 4 4 4 4 3 3
5 5 5 4 4 4 4 4 4 4 4 4 4 4 4 4 4 4 3 3 3 3 3 3 3 3 3 3 3 3 3 3 3 3 3 3 3 3 3 3 3 3 3
4 4 4 4 4 4 4 4 4 4 4 4 4 3 3 3 3 3 3 3 3 3 2 2 2 2 2 2 2 2 2 2 3 3 3 3 3 3 3 3 3 2 2
4 4 4 4 4 4 4 3 3 3 3 3 3 3 3 3 3 3 2 2 2 2 2 2 2 2 2 2 2 2 2 2 2 2 2 2 2 2 2 2 2 2 2
3 3 3 3 3 3 3 3 3 3 3 3 3 3 3 2 2 2 2 2 1 1 1 1 1 1 1 1 1 1 1 1 1 1 1 1 1 2 2 2 2 1 1
3 3 3 3 3 3 3 3 3 3 2 2 2 2 2 2 2 2 2 1 1 1 1 1 1 0 1 1 1 1 0 0 0 1 1 1 1 1 1 1 1 1 1
3 3 2 2 2 2 2 2 2 2 2 2 2 2 2 2 1 1 1 1 1 0 0 0 0 0 0 0 0 0 0 0 0 0 0 0 0 0 0 0 0 0 0
2 2 2 2 2 2 2 2 2 2 2 2 1 1 1 1 1 1 1 0 0 0 0 -0 -0 -0 -0 -0 -0 -0 -0 -1 -1 -0 -1 -1 -0 -0 -0 -0 -0 -0 -0
2 2 2 2 2 2 2 2 1 1 1 1 1 1 1 0 0 0 0 -0 -0 -0 -0 -0 -0 -0 -0 -1 -1 -1 -1 -1 -1 -1 -1 -1 -1 -1 -1 -1 -1 -1 -1
2 2 2 1 1 1 1 1 1 1 0 0 0 0 0 0 0 -0 -0 -0 -1 -0 -1 -1 -1 -1 -1 -1 -1 -1 -1 -2 -2 -2 -1 -2 -2 -2 -2 -1 -1 -2 -2
Wind_Speed
2 2 2 3 2 4 4 4 4 5 4 4 4 4 4 4 4 4 4 5 5 6 6 6 7 7 7 8 8 8 7 7 7 7 7 6 6 6 6 6 6 6 6
2 2 2 2 2 3 4 5 5 5 4 3 3 3 3 3 3 3 4 5 6 6 6 6 6 7 8 8 7 7 6 6 6 6 6 5 5 5 5 5 5 5 4
3 2 2 3 3 3 4 4 5 5 4 3 3 3 3 3 3 3 3 4 5 5 5 5 5 6 7 7 6 6 5 5 5 5 4 4 3 3 3 3 3 3 3
3 3 2 2 3 4 3 3 4 4 4 3 3 2 2 2 2 3 3 3 3 3 4 5 5 6 5 5 5 5 5 4 4 4 3 3 3 2 1 1 1 1 1
4 3 3 2 4 3 3 3 4 4 4 3 3 2 2 2 2 2 2 3 3 3 3 4 5 5 5 4 4 4 4 4 4 4 3 3 3 2 1 1 0 1 1
4 3 3 3 4 3 3 3 4 4 4 3 3 2 1 1 2 2 2 2 2 3 3 3 4 4 4 4 4 4 4 4 4 4 4 3 3 3 3 2 2 2 3
4 4 3 3 4 3 4 4 4 4 3 3 2 2 1 1 2 1 2 2 2 2 2 2 2 2 2 3 3 3 3 4 4 4 5 4 4 4 4 4 4 4 4
4 4 4 4 4 3 4 5 4 4 3 3 3 3 2 2 2 1 1 2 2 2 2 2 2 2 2 2 2 2 3 4 4 5 5 5 5 5 6 6 6 6 6
4 4 5 4 4 4 4 4 5 4 4 3 3 2 3 3 1 2 2 2 2 2 2 2 3 3 3 2 2 2 2 4 5 5 6 6 6 7 7 7 7 7 7
4 5 5 5 5 4 5 5 4 4 5 4 2 2 2 1 2 2 2 3 3 3 3 3 3 4 3 3 3 2 2 3 5 6 7 8 8 8 8 8 8 8 8
3 4 5 5 5 4 5 5 5 4 5 5 3 2 1 1 3 3 3 3 3 3 3 4 4 4 4 4 4 3 3 5 6 7 8 8 9 10 9 10 10 10 10
2 3 4 4 4 4 5 5 5 6 5 5 4 3 3 2 3 3 3 4 4 3 4 4 5 4 4 4 4 4 4 5 6 7 8 8 8 9 9 11 11 11 11
2 3 4 4 4 4 4 5 5 6 6 6 5 4 3 3 3 3 3 3 4 3 4 4 5 5 5 5 4 4 6 6 7 8 9 9 9 9 9 10 11 12 12
3 4 4 4 4 4 4 5 5 5 5 6 5 5 4 3 3 3 3 3 4 4 4 5 4 5 5 5 5 6 7 8 8 9 11 11 10 10 10 11 11 12 12
3 4 4 5 5 5 5 5 4 5 5 5 5 5 4 3 3 3 3 4 4 4 5 5 4 5 5 5 6 7 8 8 9 10 12 12 11 11 11 12 12 12 13
4 4 5 5 5 5 5 5 4 5 5 5 4 5 4 4 3 3 3 4 5 5 5 4 4 4 5 5 7 8 9 9 10 11 12 12 12 12 13 13 13 13 13
4 4 4 4 4 4 5 5 5 5 6 5 5 5 6 5 4 4 4 4 5 5 7 6 4 4 6 6 6 8 8 8 9 12 13 13 13 14 14 14 14 14 14
4 4 4 4 4 4 5 6 6 6 6 6 6 6 6 5 5 5 4 5 5 6 6 7 6 5 6 7 7 7 7 8 9 11 13 14 14 14 14 14 14 14 14
4 4 4 4 4 4 5 5 6 6 6 6 6 7 7 6 7 5 5 5 5 5 5 6 6 5 5 5 6 6 8 8 9 9 11 13 14 14 14 14 14 14 14
3 4 4 4 4 4 5 5 5 5 6 6 6 7 7 8 8 7 6 6 5 6 6 6 6 5 5 5 5 6 6 6 7 7 9 10 12 14 14 14 14 13 13
3 4 4 4 4 4 4 5 5 5 6 6 6 7 7 8 8 8 6 7 7 6 6 6 6 6 6 5 5 5 7 6 7 6 6 7 8 9 10 12 13 13 13
3 3 4 4 5 4 5 6 5 5 6 6 7 7 7 7 8 9 10 11 10 9 8 7 7 8 8 7 6 6 6 6 6 4 6 7 7 8 8 9 10 12 13
4 4 4 4 5 5 6 7 7 6 6 6 7 7 6 6 8 8 9 10 11 12 12 10 10 10 9 8 7 7 7 7 8 5 6 7 6 8 8 9 11 12 12
3 3 4 4 4 4 6 6 6 6 6 7 7 8 8 8 7 8 8 8 9 10 10 10 10 10 9 8 8 8 8 7 6 5 5 6 5 6 7 8 9 10 10
3 3 3 4 4 4 5 6 6 5 5 7 7 7 8 8 8 9 8 8 9 8 9 11 12 11 10 10 8 5 5 5 6 5 4 4 5 5 6 6 6 8 9
3 3 3 3 4 4 4 5 6 4 5 5 5 6 8 8 8 9 8 8 9 8 6 7 8 8 8 8 9 8 6 6 5 5 4 3 4 3 3 4 4 5 6
Wind_Direction
184 176 163 162 174 169 161 157 159 152 144 142 148 150 147 146 148 144 125 118 132 133 133 139 139 137 137 133 130 125 120 116 116 111 104 96 98 95 89 87 81 76 71
186 179 176 168 171 172 167 163 161 152 142 138 140 141 143 146 143 139 134 119 118 126 130 136 141 137 135 134 134 134 132 129 126 122 115 105 95 98 98 92 85 79 70
179 177 184 174 172 169 164 159 155 149 139 137 142 140 136 140 142 141 136 133 129 121 130 137 143 141 135 135 138 141 140 141 138 136 129 124 118 104 110 104 92 80 66
180 176 181 179 168 170 164 164 159 152 150 153 150 140 128 127 144 144 143 142 140 133 117 121 138 146 144 144 148 152 154 154 153 152 146 141 151 149 111 125 130 96 43
178 175 177 169 164 166 167 168 165 158 157 152 148 137 125 137 142 146 145 139 143 144 135 120 127 139 148 156 163 166 168 170 172 170 173 171 171 183 215 247 255 251 271
177 173 171 167 161 159 162 167 163 150 153 147 135 122 112 136 148 159 164 155 160 156 153 149 141 133 143 160 179 187 190 189 190 191 197 201 202 213 230 246 270 302 292
182 178 177 166 165 167 166 165 164 150 144 145 145 133 125 141 157 162 167 174 170 159 148 150 146 146 147 152 173 195 210 210 212 214 217 225 226 234 244 252 262 278 292
190 185 179 172 170 166 162 164 168 164 164 172 176 173 187 192 189 206 203 206 198 173 169 170 167 172 181 192 167 196 225 234 234 234 233 237 237 241 245 254 262 272 277
189 181 184 177 176 172 173 175 179 177 175 186 195 197 203 214 198 209 226 224 220 216 204 198 207 208 206 212 218 214 233 254 251 252 247 245 245 247 249 254 259 264 270
186 177 182 179 180 180 179 179 182 188 179 183 193 225 243 225 207 208 215 221 233 242 233 223 224 220 222 228 232 232 241 265 259 261 258 255 254 254 254 256 258 262 268
181 176 175 177 181 184 185 181 179 190 193 192 195 195 190 209 226 230 233 225 235 239 241 235 231 230 233 236 237 237 240 255 260 262 263 262 262 260 260 259 260 261 263
180 176 176 179 187 192 192 188 182 190 198 197 197 197 204 210 218 229 242 237 243 244 246 244 236 231 230 234 248 250 246 252 260 264 265 267 267 267 266 266 263 264 263
193 190 184 185 192 201 199 194 189 193 201 202 204 208 214 225 224 232 237 247 259 261 245 241 235 231 231 235 241 263 256 254 260 266 267 269 269 270 273 274 270 267 267
199 195 192 193 195 200 200 198 197 199 203 207 210 213 217 223 222 228 231 239 253 256 243 242 237 229 227 237 248 258 261 251 256 267 271 271 271 272 272 273 273 271 269
197 191 189 196 197 198 200 199 202 203 206 212 215 218 222 227 231 232 232 233 237 251 250 240 238 229 232 246 250 254 261 258 257 262 269 271 270 268 267 267 270 271 270
198 191 191 193 194 197 196 197 200 205 207 212 218 221 227 231 229 228 230 239 244 252 256 250 254 259 249 253 254 257 258 260 260 260 262 266 266 264 263 265 266 267 268
200 199 194 194 194 197 198 200 203 206 212 215 219 224 230 234 233 232 232 234 241 248 256 267 267 263 256 257 257 259 259 257 258 257 257 260 263 262 261 263 264 264 266
200 200 194 193 195 200 204 204 205 208 215 220 222 226 232 234 235 237 236 238 241 247 255 265 268 265 265 261 260 262 261 260 259 258 257 257 258 260 261 261 262 263 263
195 196 195 199 204 206 212 215 214 213 218 226 227 228 231 232 235 237 239 243 245 249 253 258 266 270 273 265 267 266 263 262 263 260 260 260 258 259 260 260 259 260 260
191 195 199 204 209 213 213 216 220 221 226 232 234 235 234 234 237 237 240 243 245 247 247 252 262 268 270 271 265 265 268 266 268 266 261 264 264 259 257 259 258 256 258
199 201 204 209 212 216 215 218 223 228 232 237 241 242 241 241 245 243 243 241 240 243 245 251 258 264 263 265 262 264 268 274 274 263 266 264 266 263 258 255 255 256 257
205 208 211 215 218 220 220 228 232 234 237 240 246 250 252 247 246 247 248 245 242 242 243 250 257 257 260 261 261 261 267 275 277 257 269 273 268 265 261 258 257 259 258
205 214 218 222 227 227 224 231 237 240 239 243 247 250 252 250 248 247 249 248 246 248 247 249 253 256 260 257 256 257 257 263 270 275 272 270 270 269 268 264 261 259 260
212 217 223 230 236 237 230 233 239 241 244 246 247 247 248 249 246 249 251 250 251 250 249 248 253 257 259 258 251 254 261 268 280 270 255 265 273 278 281 272 260 254 257
217 222 226 234 242 248 237 237 241 243 245 251 254 253 252 253 253 253 252 253 256 256 252 250 256 259 259 254 247 251 254 259 271 270 253 260 276 285 285 279 266 254 257
218 221 233 238 245 252 251 245 247 244 249 257 260 259 256 259 262 257 254 252 254 257 257 257 255 255 255 246 234 236 241 249 266 265 239 242 268 283 281 276 279 273 265
Height
1518 1519 1520 1522 1523 1524 1526 1527 1528 1530 1531 1533 1535 1536 1537 1538 1539 1540 1541 1541 1542 1543 1544 1544 1545 1545 1546 1546 1547 1547 1547 1548 1548 1548 1548 1548 1548 1548 1548 1548 1548 1548 1548
1516 1516 1517 1519 1521 1522 1523 1525 1527 1528 1530 1531 1533 1534 1536 1537 1538 1539 1540 1540 1541 1542 1543 1543 1544 1544 1545 1545 1546 1546 1546 1547 1547 1547 1547 1547 1547 1547 1547 1547 1547 1547 1547
1513 1514 1515 1516 1518 1520 1521 1523 1525 1526 1528 1530 1531 1532 1534 1535 1536 1537 1538 1539 1540 1541 1541 1542 1543 1543 1544 1544 1545 1545 1545 1545 1546 1546 1546 1546 1546 1546 1546 1546 1546 1546 1546
1510 1512 1513 1514 1516 1518 1519 1521 1522 1524 1526 1528 1529 1531 1532 1533 1535 1535 1536 1537 1538 1539 1540 1540 1541 1542 1542 1543 1543 1543 1543 1544 1544 1544 1544 1544 1544 1544 1544 1545 1545 1545 1544
1508 1509 1511 1512 1513 1515 1517 1519 1520 1522 1524 1526 1527 1528 1530 1531 1532 1533 1534 1535 1536 1537 1538 1538 1539 1540 1540 1541 1541 1541 1541 1542 1542 1542 1542 1542 1542 1542 1542 1543 1543 1543 1543
1505 1507 1508 1509 1511 1513 1514 1517 1518 1520 1522 1524 1525 1526 1527 1528 1530 1531 1532 1533 1534 1535 1535 1536 1537 1538 1538 1538 1539 1539 1539 1539 1540 1540 1540 1540 1540 1540 1540 1540 1540 1540 1540
1503 1504 1505 1507 1508 1510 1512 1514 1516 1518 1520 1521 1523 1524 1525 1526 1527 1528 1529 1530 1531 1532 1533 1534 1534 1535 1535 1536 1536 1536 1537 1537 1537 1537 1537 1538 1538 1538 1538 1538 1538 1538 1537
1500 1501 1503 1504 1506 1507 1509 1511 1514 1515 1517 1519 1521 1522 1524 1526 1525 1526 1527 1527 1528 1529 1530 1531 1531 1532 1533 1533 1534 1534 1534 1534 1534 1534 1534 1535 1535 1535 1535 1535 1535 1535 1535
1497 1498 1500 1502 1503 1505 1507 1509 1511 1513 1514 1517 1519 1521 1522 1522 1523 1523 1523 1524 1525 1526 1527 1528 1528 1529 1530 1530 1530 1531 1531 1531 1531 1531 1531 1531 1532 1532 1532 1532 1532 1532 1531
1494 1496 1497 1499 1501 1502 1504 1506 1508 1510 1512 1513 1516 1517 1519 1519 1520 1520 1521 1522 1522 1523 1524 1524 1525 1525 1526 1526 1527 1527 1527 1527 1527 1527 1528 1528 1528 1528 1528 1528 1528 1528 1527
1492 1493 1495 1496 1498 1500 1502 1503 1505 1508 1510 1511 1513 1514 1515 1516 1517 1518 1518 1518 1519 1520 1520 1520 1521 1522 1522 1522 1523 1523 1523 1524 1523 1523 1524 1524 1524 1524 1524 1524 1524 1523 1523
1490 1491 1492 1494 1496 1497 1499 1501 1502 1505 1507 1509 1510 1511 1513 1514 1515 1515 1515 1515 1515 1516 1516 1516 1517 1517 1518 1518 1518 1519 1519 1519 1519 1519 1519 1519 1519 1519 1519 1519 1519 1519 1518
1488 1488 1490 1491 1493 1495 1496 1498 1499 1502 1504 1506 1507 1508 1510 1511 1512 1512 1512 1512 1512 1511 1512 1512 1513 1513 1513 1514 1514 1514 1514 1514 1514 1514 1515 1515 1515 1514 1514 1513 1513 1513 1513
1485 1486 1488 1489 1491 1492 1494 1496 1497 1499 1501 1502 1504 1505 1506 1507 1508 1509 1509 1509 1509 1508 1508 1508 1509 1509 1509 1509 1509 1510 1509 1509 1509 1509 1509 1510 1509 1509 1508 1508 1508 1508 1507
1483 1484 1485 1487 1488 1490 1491 1493 1494 1496 1497 1499 1500 1502 1503 1504 1505 1505 1505 1506 1507 1505 1504 1504 1504 1504 1504 1504 1505 1505 1505 1504 1504 1504 1504 1504 1504 1503 1503 1502 1502 1501 1501
1481 1482 1483 1484 1485 1487 1488 1490 1491 1492 1494 1496 1497 1498 1499 1500 1501 1501 1501 1501 1502 1502 1500 1499 1500 1500 1500 1499 1500 1500 1499 1499 1499 1499 1498 1498 1498 1497 1496 1496 1495 1495 1494
1478 1479 1480 1482 1483 1484 1485 1487 1488 1489 1491 1492 1493 1494 1495 1496 1496 1496 1496 1497 1497 1497 1496 1494 1495 1495 1495 1495 1494 1494 1493 1493 1492 1492 1492 1492 1491 1491 1490 1489 1489 1488 1487
1476 1477 1478 1479 1480 1481 1482 1484 1485 1486 1487 1488 1489 1490 1491 1492 1492 1492 1492 1492 1492 1492 1492 1490 1490 1490 1490 1490 1489 1488 1488 1488 1487 1487 1486 1485 1485 1484 1483 1482 1482 1481 1481
1473 1474 1476 1476 1477 1478 1479 1480 1481 1482 1483 1484 1485 1486 1487 1487 1487 1487 1487 1487 1487 1487 1487 1486 1485 1485 1484 1484 1484 1483 1482 1482 1481 1480 1480 1479 1478 1477 1476 1476 1475 1474 1474
1471 1472 1473 1474 1475 1475 1476 1477 1478 1478 1479 1480 1481 1482 1482 1482 1482 1482 1482 1482 1483 1482 1482 1481 1480 1479 1479 1479 1478 1477 1476 1476 1475 1474 1473 1472 1471 1471 1470 1469 1468 1467 1467
1468 1469 1470 1471 1471 1472 1472 1473 1474 1475 1475 1476 1477 1477 1477 1477 1477 1477 1477 1477 1477 1477 1476 1476 1475 1474 1474 1473 1473 1472 1471 1470 1469 1468 1467 1466 1465 1464 1463 1462 1461 1461 1460
1465 1466 1466 1467 1467 1468 1469 1470 1470 1471 1471 1471 1472 1472 1472 1472 1472 1472 1472 1472 1472 1472 1471 1471 1470 1469 1468 1469 1468 1467 1466 1465 1463 1463 1462 1460 1460 1458 1457 1456 1455 1454 1453
1463 1463 1463 1464 1464 1465 1466 1466 1466 1467 1467 1467 1467 1467 1467 1466 1466 1466 1466 1466 1465 1465 1466 1466 1464 1463 1463 1463 1463 1461 1460 1459 1458 1457 1456 1453 1453 1452 1451 1449 1449 1448 1447
1460 1460 1460 1460 1461 1461 1462 1462 1462 1462 1462 1462 1463 1462 1462 1461 1461 1461 1460 1459 1459 1459 1459 1459 1458 1458 1458 1458 1457 1456 1455 1454 1452 1451 1451 1448 1447 1446 1445 1443 1442 1442 1441
1457 1457 1457 1457 1458 1458 1458 1458 1458 1457 1457 1457 1457 1457 1456 1456 1456 1455 1455 1454 1453 1453 1453 1452 1452 1452 1452 1451 1451 1450 1449 1448 1446 1445 1445 1444 1442 1440 1439 1437 1437 1436 1435
1454 1454 1454 1454 1454 1454 1454 1454 1454 1453 1452 1452 1452 1452 1451 1451 1450 1450 1449 1448 1447 1447 1447 1446 1446 1445 1445 1445 1444 1444 1443 1442 1440 1439 1439 1438 1437 1436 1433 1432 1432 1431 1430